Flag for Canada Weather past 2 weeks in Bathurst, New Brunswick, Canada

59 °F

Rain showers. Fog.

Feels Like: 58 °F
Forecast: N/A
Wind: 6 mph from East

Location: Bathurst Airport

Current Time: Oct 13, 2015 at 6:44:33 PM

Latest Report: Oct 13, 2015 at 6:00 PM

Visibility: 4 mi

Pressure: 29.52 "Hg

Humidity: 94%

Dew point: 57 °F

Location of BathurstLocation

Historic Weather in Bathurst — Graph


Bathurst temperature yesterday

Maximum temperature yesterday: 61 °F (at 3:00 PM)
Minimum temperature yesterday: 45 °F (at 1:00 AM)
Average temperature yesterday: 52 °F

Past Weeks' High & Low Weather Summary

High77 °F (Sep 28, 5:00 PM)100% (Sep 30, 6:00 AM)30.62 "Hg (Sep 30, 6:00 AM)
Low28 °F (Oct 9, 7:00 AM)31% (Oct 10, 5:00 PM)29.54 "Hg (Oct 13, 5:00 PM)
Average49 °F78%30.04 "Hg
* Reported Sep 28 5:00 PM — Oct 13 5:00 PM, Bathurst, Weather by CustomWeather, © 2015

Note: Actual official high and low records may vary slightly from our data, if they occured in-between our weather recording intervals... More about our weather records


Bathurst weather history for previous 24 hours

Time TempWeatherWind HumidityBarometerVisibility
5:00 PM
Tue, Oct 13
61 °FOvercast.5 mph83%29.54 "Hg12 mi
4:00 PM61 °FSprinkles. More clouds than sun.8 mph77%29.57 "Hg12 mi
3:52 PM61 °FSprinkles. More clouds than sun.7 mph77%29.57 "Hg10 mi
3:00 PM63 °FMostly cloudy.7 mph68%29.59 "Hg15 mi
2:00 PM61 °FMostly cloudy.8 mph63%29.62 "Hg15 mi
1:00 PM59 °FMore clouds than sun.9 mph72%29.66 "Hg15 mi
12:00 PM57 °FMore clouds than sun.9 mph77%29.69 "Hg12 mi
11:00 AM54 °FPartly sunny.7 mph88%29.70 "Hg10 mi
10:00 AM52 °FPartly sunny.10 mph94%29.72 "Hg12 mi
9:00 AM50 °FLow clouds.8 mph94%29.72 "Hg7 mi
8:00 AM50 °FLow clouds.8 mph94%29.72 "Hg7 mi
7:00 AM48 °FLow clouds.7 mph100%29.73 "Hg12 mi
6:00 AM48 °FLow clouds.3 mph100%29.73 "Hg12 mi
5:00 AM48 °FPassing clouds.5 mph100%29.73 "Hg12 mi
4:00 AM48 °FClear.2 mph100%29.73 "Hg10 mi
3:00 AM50 °FClear.3 mph94%29.75 "Hg10 mi
2:00 AM50 °FClear.2 mph100%29.76 "Hg10 mi
1:00 AM50 °FClear.3 mph100%29.76 "Hg12 mi
12:00 AM54 °FClear.3 mph88%29.76 "Hg12 mi
11:00 PM
Mon, Oct 12
55 °FPassing clouds.3 mph88%29.76 "Hg15 mi
10:00 PM57 °FPassing clouds.6 mph82%29.76 "Hg15 mi
9:00 PM59 °FOvercast.7 mph77%29.75 "Hg12 mi
8:00 PM59 °FOvercast.6 mph77%29.74 "Hg12 mi
7:00 PM59 °FOvercast.7 mph77%29.73 "Hg15 mi
6:00 PM61 °FOvercast.7 mph72%29.73 "Hg15 mi
Weather by CustomWeather, © 2015

See weather overviewHow to use our weather pages